Temperature
10 10 10 9 9 8 8 7 7 6 6 5 4 3 3 2 2 2 1 1 1 0 -1 -2 -3 -4 -5 -5 -6 -7 -7 -8 -9 -8 -8 -8 -8 -8 -8 -8 -8 -8 -8
10 9 9 9 8 7 7 6 6 5 5 4 3 3 2 2 1 1 1 0 -0 -1 -2 -3 -4 -5 -6 -6 -7 -7 -8 -8 -9 -9 -9 -8 -8 -8 -8 -8 -8 -8 -9
9 9 8 8 7 7 6 6 5 5 4 3 2 2 2 1 1 1 0 -0 -1 -2 -3 -4 -5 -6 -6 -7 -8 -8 -8 -9 -9 -9 -9 -9 -9 -8 -8 -9 -9 -9 -9
8 8 8 7 6 6 6 5 4 4 3 2 2 1 1 1 0 -0 -1 -1 -2 -3 -4 -5 -6 -7 -7 -8 -8 -8 -9 -9 -9 -9 -9 -9 -9 -9 -9 -9 -9 -10 -10
8 7 7 6 6 5 5 4 4 3 2 2 1 1 1 0 -0 -1 -2 -3 -4 -5 -6 -6 -7 -7 -8 -9 -9 -9 -9 -9 -9 -9 -8 -9 -9 -9 -10 -10 -10 -10 -10
7 6 6 5 5 4 4 3 3 2 1 1 1 0 -0 -0 -1 -2 -3 -4 -5 -6 -7 -7 -7 -8 -8 -9 -9 -9 -9 -8 -8 -9 -9 -9 -10 -10 -10 -10 -10 -10 -10
6 6 5 5 4 4 3 2 2 1 1 0 0 -0 -1 -1 -2 -2 -3 -5 -6 -7 -7 -8 -8 -8 -9 -9 -9 -9 -9 -9 -9 -9 -10 -10 -10 -10 -10 -10 -10 -10 -11
5 5 4 4 3 3 2 1 1 1 0 0 -0 -1 -1 -2 -3 -3 -4 -6 -6 -7 -8 -8 -8 -9 -9 -9 -9 -9 -9 -9 -10 -10 -10 -10 -10 -10 -10 -11 -11 -11 -11
5 4 4 3 3 2 1 1 0 0 -0 -1 -1 -2 -2 -3 -3 -4 -6 -7 -7 -8 -8 -9 -9 -10 -10 -9 -9 -9 -10 -9 -10 -10 -10 -10 -10 -10 -10 -11 -11 -12 -12
4 3 3 2 2 1 1 0 -0 -0 -1 -1 -2 -2 -3 -3 -4 -5 -7 -8 -8 -9 -9 -9 -10 -10 -10 -9 -9 -10 -10 -10 -10 -10 -10 -9 -9 -9 -9 -10 -11 -12 -12
3 2 2 1 1 0 0 -0 -1 -1 -1 -2 -2 -3 -3 -4 -5 -6 -7 -9 -9 -9 -9 -9 -10 -10 -10 -10 -10 -10 -10 -10 -10 -10 -9 -9 -9 -9 -9 -9 -10 -11 -12
2 2 1 1 0 -0 -0 -1 -1 -2 -2 -3 -3 -3 -4 -5 -6 -7 -8 -9 -9 -9 -10 -10 -10 -10 -10 -10 -10 -10 -11 -11 -10 -10 -10 -10 -9 -9 -8 -8 -8 -9 -9
2 1 1 0 -0 -1 -1 -1 -2 -2 -3 -4 -4 -5 -5 -6 -7 -8 -9 -9 -10 -10 -10 -10 -10 -10 -10 -9 -9 -10 -10 -10 -11 -11 -11 -10 -9 -9 -8 -8 -8 -8 -7
1 0 -0 -1 -1 -1 -2 -2 -3 -3 -4 -5 -6 -7 -7 -7 -8 -9 -10 -10 -10 -10 -10 -10 -10 -10 -9 -9 -9 -9 -10 -10 -11 -11 -11 -10 -9 -8 -8 -8 -8 -8 -8
0 -0 -1 -1 -2 -2 -2 -3 -3 -4 -5 -6 -7 -8 -9 -9 -9 -10 -10 -10 -10 -10 -11 -10 -10 -10 -10 -10 -10 -10 -10 -10 -10 -10 -10 -9 -9 -9 -8 -8 -8 -8 -9
-1 -1 -1 -2 -2 -2 -3 -3 -4 -5 -6 -7 -7 -8 -8 -9 -9 -10 -10 -10 -10 -10 -11 -10 -10 -10 -10 -11 -10 -10 -10 -9 -9 -9 -9 -9 -9 -9 -8 -8 -8 -8 -9
-1 -2 -2 -2 -3 -3 -4 -4 -5 -5 -6 -6 -7 -8 -8 -8 -9 -9 -10 -10 -10 -10 -10 -10 -10 -11 -11 -11 -10 -10 -10 -9 -9 -9 -9 -9 -9 -9 -8 -8 -8 -8 -8
-2 -2 -3 -3 -4 -4 -5 -6 -6 -7 -7 -7 -7 -8 -8 -9 -9 -10 -10 -10 -10 -10 -10 -11 -11 -11 -11 -10 -10 -10 -9 -9 -8 -8 -8 -8 -8 -8 -8 -8 -8 -8 -9
-3 -3 -3 -4 -5 -5 -6 -6 -7 -7 -8 -8 -8 -8 -9 -9 -9 -10 -10 -10 -10 -10 -11 -11 -11 -10 -10 -10 -10 -9 -9 -8 -8 -8 -8 -8 -8 -8 -8 -8 -8 -8 -8
-3 -4 -4 -5 -5 -6 -6 -7 -8 -8 -8 -9 -9 -9 -9 -10 -10 -10 -10 -10 -11 -11 -11 -11 -10 -10 -10 -10 -9 -9 -8 -8 -8 -8 -8 -8 -8 -8 -8 -8 -8 -8 -8
-4 -5 -5 -5 -6 -6 -7 -8 -8 -9 -9 -9 -9 -10 -11 -11 -10 -10 -10 -11 -11 -11 -11 -10 -10 -9 -9 -9 -9 -8 -8 -8 -7 -8 -7 -7 -7 -7 -7 -8 -8 -8 -8
-5 -5 -6 -6 -7 -7 -8 -9 -9 -9 -10 -10 -10 -10 -10 -10 -10 -11 -11 -11 -10 -10 -10 -10 -9 -9 -9 -9 -8 -8 -8 -7 -7 -7 -7 -7 -7 -7 -7 -7 -7 -7 -7
-5 -6 -6 -7 -7 -8 -8 -9 -9 -10 -10 -10 -10 -10 -10 -11 -11 -11 -11 -10 -10 -10 -10 -9 -9 -8 -8 -8 -8 -7 -7 -7 -7 -7 -7 -7 -7 -7 -7 -7 -7 -7 -7
-6 -6 -7 -8 -8 -9 -9 -9 -10 -10 -10 -10 -11 -11 -11 -11 -11 -11 -10 -10 -10 -9 -9 -9 -8 -8 -8 -7 -7 -7 -7 -7 -7 -7 -7 -7 -7 -7 -7 -7 -7 -7 -7
-7 -7 -8 -8 -9 -9 -10 -10 -10 -10 -11 -11 -11 -11 -11 -11 -11 -10 -10 -10 -9 -9 -8 -8 -8 -7 -7 -7 -7 -7 -7 -7 -7 -7 -7 -7 -7 -7 -7 -7 -7 -7 -7
-7 -8 -8 -9 -9 -10 -10 -10 -10 -11 -11 -11 -11 -11 -11 -11 -11 -10 -10 -10 -9 -9 -8 -8 -7 -7 -7 -7 -7 -7 -7 -7 -7 -7 -7 -7 -7 -7 -7 -7 -7 -7 -7
Wind_Speed
14 14 14 12 12 11 10 9 8 7 7 6 5 4 3 3 3 3 4 4 5 6 6 6 8 8 6 6 6 7 8 10 17 18 13 11 11 12 14 14 18 16 19
14 15 14 12 12 11 10 8 8 7 6 5 4 4 3 3 3 4 5 6 6 7 8 7 8 8 8 7 7 9 9 10 14 20 18 14 14 13 14 13 14 15 11
15 15 13 12 11 10 9 8 7 7 6 5 4 3 3 4 4 5 5 7 7 7 7 7 8 9 9 9 9 10 10 11 11 16 19 16 14 13 13 14 13 12 16
14 14 13 11 10 9 8 8 7 6 6 4 3 3 3 4 5 6 6 7 6 6 6 7 8 9 11 11 11 10 10 11 12 14 16 15 14 12 11 14 16 11 13
14 13 11 10 9 9 8 7 6 6 5 3 3 3 4 4 5 7 6 6 6 6 7 8 9 14 17 15 14 12 12 13 14 14 16 16 15 14 15 14 18 17 14
13 12 11 10 9 8 8 7 6 5 3 3 3 4 5 5 11 15 12 6 5 7 9 9 10 12 17 22 26 25 23 19 17 15 15 16 18 16 16 17 18 19 18
13 11 10 10 9 8 7 6 5 3 3 3 4 5 6 8 13 15 16 9 6 8 9 10 12 13 18 13 20 24 21 23 23 17 17 17 18 18 19 20 18 19 20
12 10 9 9 9 7 6 5 4 2 2 3 4 5 6 8 14 16 18 9 7 9 10 10 12 12 14 18 16 15 12 12 18 15 13 15 16 15 16 18 18 19 18
11 10 9 9 8 7 6 4 2 2 2 3 4 6 6 9 14 17 18 7 7 9 10 10 12 11 22 27 18 15 14 13 19 22 24 24 28 27 22 15 15 15 17
10 9 8 8 8 7 5 3 2 1 3 4 5 6 7 8 13 18 19 7 8 9 8 8 16 20 25 27 16 12 15 16 16 16 17 19 17 18 22 14 13 14 16
11 10 9 8 7 6 4 2 2 2 4 5 6 7 7 9 13 18 20 9 9 9 10 8 10 24 27 27 23 12 18 20 13 13 14 13 13 11 12 12 12 13 15
11 10 8 7 5 5 4 3 3 4 5 6 6 7 6 7 11 16 20 19 18 11 11 10 13 26 27 25 19 20 25 20 11 12 13 13 13 13 13 15 16 15 15
11 9 7 7 5 4 3 3 3 3 4 5 5 7 7 6 9 18 20 22 22 13 11 20 24 25 23 16 19 23 19 11 12 12 13 13 11 13 14 13 14 14 16
10 8 6 5 4 4 3 2 3 4 5 6 6 7 8 7 7 8 8 11 16 14 12 16 21 21 17 17 16 14 11 11 12 12 13 13 12 11 12 12 14 14 14
9 6 5 4 3 3 3 2 4 4 5 8 5 6 8 8 12 20 16 11 11 13 15 8 8 10 10 11 11 11 11 11 12 12 12 13 14 13 13 11 11 13 12
7 5 4 3 2 3 4 5 7 8 12 14 14 13 11 16 21 22 22 22 22 22 14 9 10 11 11 12 13 13 13 12 12 12 12 12 13 13 14 13 12 12 13
7 5 3 3 2 3 3 4 6 8 11 13 15 18 17 20 21 21 21 22 20 18 9 9 10 11 11 12 12 13 13 13 12 12 12 12 12 12 13 13 13 12 13
6 5 4 2 2 3 3 4 5 6 9 8 13 18 19 20 21 20 21 17 12 10 8 9 11 11 12 12 12 13 13 13 12 12 12 12 11 12 12 12 12 13 14
5 3 2 2 2 3 4 4 5 6 7 8 9 11 16 18 19 18 17 8 10 10 10 10 11 11 12 12 12 13 13 13 13 13 12 12 11 11 12 12 12 17 14
4 5 4 3 3 4 4 5 5 6 7 8 9 10 11 12 8 10 10 8 9 10 11 12 12 12 12 12 12 12 13 13 13 12 12 12 11 11 12 13 12 12 11
3 4 6 4 3 4 4 5 6 6 7 8 9 12 18 11 9 10 10 10 10 11 12 12 12 12 12 12 12 13 14 14 13 12 12 12 12 12 11 11 11 10 9
3 2 3 3 4 4 5 5 6 7 8 9 9 12 17 10 8 9 10 11 11 11 11 12 12 12 12 12 13 13 14 14 14 13 13 13 12 12 11 10 9 8 8
3 3 3 3 4 7 7 6 6 7 8 9 10 10 10 10 10 10 11 12 12 12 12 12 13 13 13 12 12 13 13 14 14 14 14 14 12 10 9 8 8 7 6
3 3 3 4 4 4 5 6 7 8 9 10 10 10 10 11 11 12 12 12 12 13 12 12 13 17 20 17 13 12 13 14 15 14 15 12 10 8 7 6 6 6 5
3 3 4 4 5 5 6 7 7 8 9 10 10 10 11 11 12 12 12 12 13 14 16 16 13 14 19 22 20 17 21 26 21 12 8 7 8 7 6 5 4 4 4
3 4 4 4 4 5 6 7 8 8 9 9 9 10 11 11 11 12 12 12 13 14 15 15 16 19 22 18 19 22 25 23 18 15 8 6 6 5 5 4 4 4 4
Wind_Direction
123 120 118 115 113 110 109 108 108 103 100 95 89 75 52 23 352 341 323 313 310 301 297 290 281 278 273 266 261 262 264 268 286 297 297 296 288 286 291 283 282 279 281
123 120 117 115 113 109 108 108 107 102 96 94 86 69 36 3 340 331 317 314 302 298 297 296 291 294 282 276 271 269 270 267 279 293 300 302 295 291 290 286 295 292 284
123 120 118 116 114 112 112 110 105 102 94 84 75 53 12 342 327 314 301 297 294 292 295 296 293 291 288 283 277 277 276 282 281 290 296 298 297 296 296 296 291 286 288
122 121 120 119 118 117 113 108 103 101 94 78 59 29 353 326 311 300 296 294 293 295 295 290 288 287 285 283 287 279 287 292 290 290 293 297 299 298 300 304 303 292 291
122 121 121 120 116 113 108 104 99 92 86 68 38 7 344 321 311 310 302 298 297 295 292 286 287 300 304 305 306 306 303 298 297 297 300 303 305 308 307 305 303 302 292
123 123 124 121 115 111 108 104 95 84 67 38 14 350 338 332 324 326 326 305 291 291 297 294 293 297 302 311 311 307 304 303 305 304 306 304 303 303 304 303 304 303 301
123 125 125 121 114 110 107 98 87 75 46 10 348 338 325 317 327 328 324 322 299 292 293 296 304 307 312 298 298 303 304 305 306 304 300 298 299 302 303 303 302 300 298
124 125 123 118 113 108 99 89 77 62 20 347 329 325 319 319 331 327 323 327 298 287 286 288 292 295 300 306 305 309 304 300 299 299 291 293 297 299 299 301 300 299 295
127 125 122 119 116 108 96 84 71 32 355 328 318 321 318 316 328 326 326 306 295 291 290 291 301 301 305 313 317 312 308 306 309 306 305 305 306 307 307 306 305 304 302
128 121 115 114 114 109 102 89 56 7 332 327 322 317 311 306 320 327 325 302 302 302 297 291 307 313 313 319 320 315 314 311 311 313 312 308 303 300 305 304 301 300 301
118 112 107 106 108 108 98 79 37 2 346 336 321 314 306 309 322 325 324 322 310 311 314 309 305 315 319 322 324 318 309 315 320 316 310 306 305 304 305 303 298 294 294
113 109 105 100 98 97 87 60 26 6 346 331 319 314 302 302 316 320 324 323 323 318 314 311 312 319 324 325 323 316 319 325 319 311 309 309 311 309 308 305 299 293 284
110 107 105 97 85 81 73 36 6 355 336 318 309 308 309 305 310 320 322 323 324 322 311 315 319 323 326 324 317 320 325 320 312 311 311 309 306 301 303 305 304 300 293
111 109 105 97 80 51 39 22 352 328 317 311 311 310 309 308 305 303 302 313 321 319 312 315 323 323 322 318 319 319 316 310 313 310 308 306 306 306 308 310 312 315 314
108 104 96 85 70 33 7 332 315 281 287 310 302 302 314 312 314 323 328 322 322 319 325 324 323 321 322 320 318 317 316 316 315 311 309 310 311 311 311 313 310 313 312
108 99 89 74 46 22 349 328 322 320 322 323 323 322 318 317 321 327 327 328 329 330 332 324 320 319 318 318 318 317 316 315 313 311 309 307 308 310 311 312 313 313 314
107 101 84 63 30 356 337 327 323 325 324 326 328 328 326 325 327 329 330 332 332 333 329 316 314 314 313 312 311 311 310 310 309 307 306 306 307 307 308 311 314 316 315
92 82 75 50 4 332 317 309 304 311 318 318 324 327 328 329 328 330 334 337 329 329 318 313 312 311 310 309 309 308 308 309 309 307 306 304 305 306 307 309 311 313 315
85 69 53 23 347 323 313 308 303 303 307 310 314 321 328 326 327 331 337 330 319 320 318 313 310 308 306 306 305 305 304 304 304 305 304 303 304 305 304 305 307 311 316
64 41 36 17 347 329 319 313 312 312 313 314 317 321 322 322 326 328 328 318 318 316 314 311 308 305 305 304 304 304 304 304 304 303 302 303 302 301 301 303 305 310 312
58 22 14 8 341 324 315 314 316 315 314 314 313 316 325 328 322 318 319 319 317 314 311 309 306 305 303 302 302 302 301 301 301 300 300 301 301 302 301 300 302 305 309
50 21 2 345 332 321 320 321 318 315 314 313 314 318 325 325 315 315 316 315 312 308 306 305 302 300 299 300 300 301 300 299 299 299 299 300 300 298 298 299 302 308 313
43 20 0 342 328 331 334 322 319 317 315 315 316 319 321 321 320 317 315 313 311 309 308 305 302 300 300 299 297 293 292 292 292 292 293 294 295 295 298 301 306 313 319
38 13 348 332 325 322 320 318 318 320 320 318 318 318 318 318 316 313 312 311 310 308 306 305 301 299 300 304 302 298 292 289 290 289 287 290 296 301 305 309 313 319 324
23 356 337 326 322 320 318 317 318 319 318 317 316 316 316 314 312 311 311 310 308 307 307 308 304 304 304 306 305 302 301 305 311 315 311 313 312 312 314 320 329 338 349
358 338 324 316 312 310 312 313 313 312 312 312 312 312 311 310 309 309 310 309 311 311 309 309 306 307 307 307 305 308 314 322 332 342 341 320 322 328 339 351 359 7 11
Height
1449 1455 1461 1465 1469 1473 1476 1478 1479 1480 1480 1480 1479 1478 1477 1475 1473 1471 1468 1465 1462 1459 1455 1451 1447 1443 1439 1435 1431 1427 1422 1416 1404 1390 1386 1382 1377 1373 1368 1364 1360 1355 1349
1449 1455 1460 1464 1468 1471 1474 1476 1477 1477 1477 1477 1476 1475 1474 1472 1470 1467 1464 1460 1457 1453 1449 1444 1440 1436 1432 1428 1423 1418 1414 1409 1401 1389 1379 1374 1369 1365 1359 1354 1350 1346 1340
1448 1454 1459 1463 1467 1470 1472 1474 1475 1475 1474 1474 1473 1472 1470 1468 1465 1462 1459 1455 1451 1447 1442 1438 1434 1429 1424 1420 1415 1411 1406 1401 1396 1387 1376 1369 1362 1357 1351 1345 1340 1334 1329
1448 1454 1458 1463 1466 1469 1470 1471 1472 1472 1472 1471 1470 1468 1466 1464 1461 1457 1453 1449 1445 1441 1437 1433 1428 1423 1418 1413 1408 1404 1399 1393 1387 1380 1371 1363 1357 1351 1345 1337 1328 1322 1317
1448 1454 1458 1462 1465 1467 1468 1469 1470 1470 1469 1468 1467 1465 1462 1460 1456 1452 1447 1444 1439 1435 1431 1427 1422 1417 1413 1408 1404 1398 1392 1386 1379 1372 1364 1357 1350 1344 1337 1330 1321 1313 1305
1448 1453 1457 1460 1463 1465 1466 1467 1467 1467 1467 1465 1464 1461 1458 1455 1451 1447 1443 1438 1434 1429 1424 1420 1415 1411 1406 1402 1397 1391 1387 1381 1373 1366 1358 1351 1343 1337 1330 1323 1315 1306 1294
1448 1452 1456 1459 1462 1463 1464 1465 1465 1465 1464 1462 1460 1457 1454 1450 1446 1442 1438 1433 1428 1424 1419 1414 1409 1404 1400 1393 1387 1383 1378 1373 1369 1362 1352 1344 1337 1331 1324 1316 1309 1301 1291
1448 1452 1455 1458 1460 1461 1463 1463 1463 1462 1461 1459 1456 1453 1449 1445 1441 1436 1432 1427 1422 1418 1414 1409 1403 1397 1392 1386 1381 1375 1369 1364 1359 1352 1346 1339 1332 1325 1319 1312 1303 1293 1283
1448 1451 1454 1457 1459 1460 1461 1461 1461 1460 1458 1455 1452 1448 1444 1440 1435 1431 1426 1421 1416 1412 1408 1403 1398 1392 1386 1381 1375 1368 1360 1354 1349 1344 1339 1332 1325 1318 1312 1305 1296 1288 1276
1448 1451 1454 1456 1458 1459 1459 1459 1458 1456 1454 1451 1448 1444 1439 1434 1430 1425 1421 1416 1411 1406 1401 1397 1392 1387 1381 1375 1369 1361 1353 1346 1341 1334 1328 1323 1316 1310 1305 1299 1291 1283 1273
1448 1451 1453 1455 1456 1457 1457 1456 1455 1453 1450 1447 1444 1440 1435 1430 1425 1421 1416 1412 1407 1401 1396 1390 1385 1380 1375 1369 1363 1355 1348 1343 1336 1328 1321 1314 1309 1303 1298 1292 1286 1279 1269
1448 1450 1452 1454 1455 1455 1455 1453 1451 1449 1445 1442 1438 1434 1431 1426 1421 1416 1412 1408 1403 1397 1390 1384 1378 1374 1368 1361 1355 1349 1344 1337 1330 1322 1315 1309 1303 1296 1290 1284 1278 1271 1264
1448 1450 1452 1453 1453 1453 1452 1450 1448 1444 1441 1437 1432 1428 1424 1420 1416 1412 1407 1402 1397 1392 1385 1380 1374 1368 1361 1355 1349 1344 1338 1331 1324 1318 1311 1305 1298 1292 1285 1278 1271 1263 1256
1448 1449 1451 1451 1451 1451 1449 1447 1444 1440 1436 1432 1428 1423 1419 1415 1410 1405 1401 1396 1391 1386 1379 1373 1368 1362 1356 1350 1345 1339 1333 1327 1322 1315 1308 1301 1294 1287 1280 1273 1265 1257 1247
1447 1449 1450 1450 1449 1448 1446 1444 1440 1437 1433 1429 1424 1420 1415 1410 1406 1403 1398 1392 1387 1381 1374 1368 1362 1356 1350 1345 1339 1334 1329 1323 1317 1311 1304 1297 1290 1283 1276 1270 1262 1254 1246
1447 1448 1448 1448 1447 1445 1443 1441 1438 1435 1431 1426 1422 1418 1412 1408 1402 1398 1393 1388 1382 1376 1370 1363 1358 1352 1346 1341 1335 1329 1324 1319 1313 1307 1300 1294 1287 1280 1272 1266 1260 1253 1245
1446 1447 1447 1446 1444 1442 1439 1436 1433 1430 1428 1423 1419 1414 1408 1403 1398 1393 1388 1382 1377 1371 1366 1360 1354 1349 1343 1338 1332 1326 1320 1315 1309 1303 1297 1290 1284 1277 1270 1263 1257 1251 1244
1446 1446 1445 1444 1442 1439 1436 1433 1429 1424 1420 1417 1414 1409 1403 1398 1393 1388 1382 1377 1371 1367 1362 1356 1351 1345 1340 1334 1329 1323 1317 1311 1305 1299 1293 1287 1281 1274 1268 1262 1256 1250 1243
1445 1444 1443 1441 1439 1436 1433 1429 1426 1421 1417 1412 1407 1403 1398 1393 1388 1384 1378 1373 1367 1362 1357 1352 1347 1342 1336 1331 1325 1319 1313 1307 1301 1295 1290 1284 1278 1272 1266 1260 1255 1249 1244
1443 1442 1440 1438 1436 1433 1429 1426 1422 1418 1413 1408 1403 1397 1392 1387 1382 1378 1373 1368 1363 1359 1354 1348 1343 1338 1333 1327 1321 1315 1309 1303 1298 1292 1287 1281 1275 1270 1264 1259 1254 1249 1243
1441 1440 1438 1436 1433 1430 1426 1422 1418 1414 1409 1404 1400 1395 1390 1384 1379 1374 1369 1365 1360 1355 1350 1345 1340 1335 1329 1323 1317 1311 1306 1300 1295 1289 1283 1278 1273 1268 1263 1258 1253 1249 1244
1439 1438 1435 1433 1430 1426 1423 1419 1415 1410 1406 1401 1395 1391 1386 1381 1376 1371 1366 1362 1357 1353 1347 1342 1336 1331 1326 1320 1314 1308 1302 1297 1291 1286 1280 1275 1271 1266 1261 1257 1253 1249 1245
1437 1435 1433 1430 1427 1423 1420 1416 1411 1407 1402 1397 1392 1387 1382 1377 1373 1368 1363 1359 1354 1349 1345 1339 1334 1328 1323 1318 1312 1306 1300 1294 1289 1283 1278 1273 1268 1264 1260 1256 1252 1249 1245
1435 1432 1429 1426 1423 1420 1416 1412 1408 1403 1399 1394 1389 1384 1379 1375 1370 1365 1361 1356 1351 1347 1342 1337 1332 1326 1321 1315 1310 1304 1299 1292 1286 1281 1277 1272 1268 1264 1260 1256 1253 1249 1246
1432 1429 1426 1423 1420 1416 1412 1408 1404 1400 1396 1391 1386 1382 1377 1372 1368 1363 1358 1354 1349 1344 1340 1335 1330 1324 1319 1313 1308 1302 1296 1291 1286 1281 1276 1271 1267 1263 1259 1256 1253 1250 1248
1429 1426 1423 1420 1416 1413 1409 1405 1401 1397 1393 1388 1384 1379 1375 1370 1366 1361 1357 1352 1347 1342 1338 1333 1328 1323 1317 1312 1306 1300 1295 1290 1284 1279 1275 1270 1267 1263 1260 1257 1254 1252 1250